owner,sensor,date,latitude,longitude,air_pressure(mBar),qcFlag 
ADCP,ioos:station:wmo:42361:1,2008-05-01T00:00:00Z,27.5500,-92.4900,1014.6,11111222 
ADCP,ioos:station:wmo:42361:1,2008-05-01T01:00:00Z,27.5500,-92.4900,1014.6,11111222 
ADCP,ioos:station:wmo:42361:1,2008-05-01T02:00:00Z,27.5500,-92.4900,1015.3,11111222 
ADCP,ioos:station:wmo:42361:1,2008-05-01T03:00:00Z,27.5500,-92.4900,1015.6,11111222 
ADCP,ioos:station:wmo:42361:1,2008-05-01T04:00:00Z,27.5500,-92.4900,1015.6,11111222 
ADCP,ioos:station:wmo:42361:1,2008-05-01T05:00:00Z,27.5500,-92.4900,1015.3,11111222 
ADCP,ioos:station:wmo:42361:1,2008-05-01T06:00:00Z,27.5500,-92.4900,1014.2,11111222 
ADCP,ioos:station:wmo:42361:1,2008-05-01T07:00:00Z,27.5500,-92.4900,1013.6,11111222 
ADCP,ioos:station:wmo:42361:1,2008-05-01T08:00:00Z,27.5500,-92.4900,1012.5,11111222 
ADCP,ioos:station:wmo:42361:1,2008-05-01T09:15:00Z,27.5500,-92.4900,1012.5,11111222 
ADCP,ioos:station:wmo:42361:1,2008-05-01T10:00:00Z,27.5500,-92.4900,1012.2,11111222 
ADCP,ioos:station:wmo:42361:1,2008-05-01T11:15:00Z,27.5500,-92.4900,1012.5,11111222 
ADCP,ioos:station:wmo:42361:1,2008-05-01T12:00:00Z,27.5500,-92.4900,1012.9,11111222 
ADCP,ioos:station:wmo:42361:1,2008-05-01T13:00:00Z,27.5500,-92.4900,1013.6,11111222 
ADCP,ioos:station:wmo:42361:1,2008-05-01T14:00:00Z,27.5500,-92.4900,1013.2,11111222 
ADCP,ioos:station:wmo:42361:1,2008-05-01T15:00:00Z,27.5500,-92.4900,1013.6,11111222 
ADCP,ioos:station:wmo:42361:1,2008-05-01T16:00:00Z,27.5500,-92.4900,1013.9,11111222 
ADCP,ioos:station:wmo:42361:1,2008-05-01T17:00:00Z,27.5500,-92.4900,1013.2,11111222 
ADCP,ioos:station:wmo:42361:1,2008-05-01T18:00:00Z,27.5500,-92.4900,1012.5,11111222 
ADCP,ioos:station:wmo:42361:1,2008-05-01T19:00:00Z,27.5500,-92.4900,1012.2,11111222 
ADCP,ioos:station:wmo:42361:1,2008-05-01T20:00:00Z,27.5500,-92.4900,1011.9,11111222 
ADCP,ioos:station:wmo:42361:1,2008-05-01T21:00:00Z,27.5500,-92.4900,1011.2,11111222 
ADCP,ioos:station:wmo:42361:1,2008-05-01T22:00:00Z,27.5500,-92.4900,1010.8,11111222 
ADCP,ioos:station:wmo:42361:1,2008-05-01T23:00:00Z,27.5500,-92.4900,1010.5,11111222 
ADCP,ioos:station:wmo:42361:1,2008-05-02T00:00:00Z,27.5500,-92.4900,1010.2,11111222 
ADCP,ioos:station:wmo:42361:1,2008-05-02T01:00:00Z,27.5500,-92.4900,1010.5,11111222 
ADCP,ioos:station:wmo:42361:1,2008-05-02T02:00:00Z,27.5500,-92.4900,1010.5,11111222 
ADCP,ioos:station:wmo:42361:1,2008-05-02T03:00:00Z,27.5500,-92.4900,1010.5,11111222 
ADCP,ioos:station:wmo:42361:1,2008-05-02T04:00:00Z,27.5500,-92.4900,1009.8,11111222 
ADCP,ioos:station:wmo:42361:1,2008-05-02T05:00:00Z,27.5500,-92.4900,1009.2,11111222 
ADCP,ioos:station:wmo:42361:1,2008-05-02T06:00:00Z,27.5500,-92.4900,1009.2,11111222 
ADCP,ioos:station:wmo:42361:1,2008-05-02T07:00:00Z,27.5500,-92.4900,1008.1,11111222 
ADCP,ioos:station:wmo:42361:1,2008-05-02T08:00:00Z,27.5500,-92.4900,1009.2,11111222 
ADCP,ioos:station:wmo:42361:1,2008-05-02T09:00:00Z,27.5500,-92.4900,1008.8,11111222 
ADCP,ioos:station:wmo:42361:1,2008-05-02T10:00:00Z,27.5500,-92.4900,1010.2,11111222 
ADCP,ioos:station:wmo:42361:1,2008-05-02T11:00:00Z,27.5500,-92.4900,1010.2,11111222 
ADCP,ioos:station:wmo:42361:1,2008-05-02T12:00:00Z,27.5500,-92.4900,1010.5,11111222 
ADCP,ioos:station:wmo:42361:1,2008-05-02T13:00:00Z,27.5500,-92.4900,1010.8,11111222 
ADCP,ioos:station:wmo:42361:1,2008-05-02T14:30:00Z,27.5500,-92.4900,1011.2,11111222 
ADCP,ioos:station:wmo:42361:1,2008-05-02T15:15:00Z,27.5500,-92.4900,1011.5,11111222 
ADCP,ioos:station:wmo:42361:1,2008-05-02T16:15:00Z,27.5500,-92.4900,1011.5,11111222 
ADCP,ioos:station:wmo:42361:1,2008-05-02T17:00:00Z,27.5500,-92.4900,1011.2,11111222 
ADCP,ioos:station:wmo:42361:1,2008-05-02T18:00:00Z,27.5500,-92.4900,1010.8,11111222 
ADCP,ioos:station:wmo:42361:1,2008-05-02T19:00:00Z,27.5500,-92.4900,1010.2,11111222 
ADCP,ioos:station:wmo:42361:1,2008-05-02T20:15:00Z,27.5500,-92.4900,1009.8,11111222 
ADCP,ioos:station:wmo:42361:1,2008-05-02T21:00:00Z,27.5500,-92.4900,1009.5,11111222 
ADCP,ioos:station:wmo:42361:1,2008-05-02T22:00:00Z,27.5500,-92.4900,1009.2,11111222 
ADCP,ioos:station:wmo:42361:1,2008-05-02T23:00:00Z,27.5500,-92.4900,1009.5,11111222 
ADCP,ioos:station:wmo:42361:1,2008-05-03T00:00:00Z,27.5500,-92.4900,1010.2,11111222 
ADCP,ioos:station:wmo:42361:1,2008-05-03T01:00:00Z,27.5500,-92.4900,1010.5,11111222 
ADCP,ioos:station:wmo:42361:1,2008-05-03T02:00:00Z,27.5500,-92.4900,1011.5,11111222 
ADCP,ioos:station:wmo:42361:1,2008-05-03T03:00:00Z,27.5500,-92.4900,1012.2,11111222 
ADCP,ioos:station:wmo:42361:1,2008-05-03T04:00:00Z,27.5500,-92.4900,1012.5,11111222 
ADCP,ioos:station:wmo:42361:1,2008-05-03T05:00:00Z,27.5500,-92.4900,1012.2,11111222 
ADCP,ioos:station:wmo:42361:1,2008-05-03T06:00:00Z,27.5500,-92.4900,1012.2,11111222 
ADCP,ioos:station:wmo:42361:1,2008-05-03T07:00:00Z,27.5500,-92.4900,1011.2,11111222 
ADCP,ioos:station:wmo:42361:1,2008-05-03T08:00:00Z,27.5500,-92.4900,1010.8,11111222 
ADCP,ioos:station:wmo:42361:1,2008-05-03T09:00:00Z,27.5500,-92.4900,1011.5,11111222 
ADCP,ioos:station:wmo:42361:1,2008-05-03T10:00:00Z,27.5500,-92.4900,1011.9,11111222 
ADCP,ioos:station:wmo:42361:1,2008-05-03T11:00:00Z,27.5500,-92.4900,1012.5,11111222 
ADCP,ioos:station:wmo:42361:1,2008-05-03T12:00:00Z,27.5500,-92.4900,1013.9,11111222 
ADCP,ioos:station:wmo:42361:1,2008-05-03T13:00:00Z,27.5500,-92.4900,1014.2,11111222 
ADCP,ioos:station:wmo:42361:1,2008-05-03T14:00:00Z,27.5500,-92.4900,1014.9,11111222 
ADCP,ioos:station:wmo:42361:1,2008-05-03T15:00:00Z,27.5500,-92.4900,1015.6,11111222 
ADCP,ioos:station:wmo:42361:1,2008-05-03T16:00:00Z,27.5500,-92.4900,1015.6,11111222 
ADCP,ioos:station:wmo:42361:1,2008-05-03T17:00:00Z,27.5500,-92.4900,1015.6,11111222 
ADCP,ioos:station:wmo:42361:1,2008-05-03T18:00:00Z,27.5500,-92.4900,1015.6,11111222 
ADCP,ioos:station:wmo:42361:1,2008-05-03T19:00:00Z,27.5500,-92.4900,1014.9,11111222 
ADCP,ioos:station:wmo:42361:1,2008-05-03T20:00:00Z,27.5500,-92.4900,1014.6,11111222 
ADCP,ioos:station:wmo:42361:1,2008-05-03T21:00:00Z,27.5500,-92.4900,1014.2,11111222 
ADCP,ioos:station:wmo:42361:1,2008-05-03T22:00:00Z,27.5500,-92.4900,1014.2,11111222 
ADCP,ioos:station:wmo:42361:1,2008-05-03T23:30:00Z,27.5500,-92.4900,1014.6,11111222 
ADCP,ioos:station:wmo:42361:1,2008-05-04T00:00:00Z,27.5500,-92.4900,1014.9,11111222 
ADCP,ioos:station:wmo:42361:1,2008-05-04T01:00:00Z,27.5500,-92.4900,1015.3,11111222 
ADCP,ioos:station:wmo:42361:1,2008-05-04T02:00:00Z,27.5500,-92.4900,1015.9,11111222 
ADCP,ioos:station:wmo:42361:1,2008-05-04T03:30:00Z,27.5500,-92.4900,1016.9,11111222 
ADCP,ioos:station:wmo:42361:1,2008-05-04T04:00:00Z,27.5500,-92.4900,1016.9,11111222 
ADCP,ioos:station:wmo:42361:1,2008-05-04T05:00:00Z,27.5500,-92.4900,1016.9,11111222 
ADCP,ioos:station:wmo:42361:1,2008-05-04T06:30:00Z,27.5500,-92.4900,1016.6,11111222 
ADCP,ioos:station:wmo:42361:1,2008-05-04T07:00:00Z,27.5500,-92.4900,1016.3,11111222 
ADCP,ioos:station:wmo:42361:1,2008-05-04T08:00:00Z,27.5500,-92.4900,1015.6,11111222 
ADCP,ioos:station:wmo:42361:1,2008-05-04T09:30:00Z,27.5500,-92.4900,1015.6,11111222 
ADCP,ioos:station:wmo:42361:1,2008-05-04T10:30:00Z,27.5500,-92.4900,1015.9,11111222 
ADCP,ioos:station:wmo:42361:1,2008-05-04T11:00:00Z,27.5500,-92.4900,1016.3,11111222 
ADCP,ioos:station:wmo:42361:1,2008-05-04T12:00:00Z,27.5500,-92.4900,1017.6,11111222 
ADCP,ioos:station:wmo:42361:1,2008-05-04T13:15:00Z,27.5500,-92.4900,1018.6,11111222 
ADCP,ioos:station:wmo:42361:1,2008-05-04T14:00:00Z,27.5500,-92.4900,1018.6,11111222 
ADCP,ioos:station:wmo:42361:1,2008-05-04T15:15:00Z,27.5500,-92.4900,1019.3,11111222 
ADCP,ioos:station:wmo:42361:1,2008-05-04T16:00:00Z,27.5500,-92.4900,1019.7,11111222 
ADCP,ioos:station:wmo:42361:1,2008-05-04T17:00:00Z,27.5500,-92.4900,1019.7,11111222 
ADCP,ioos:station:wmo:42361:1,2008-05-04T18:30:00Z,27.5500,-92.4900,1019.0,11111222 
ADCP,ioos:station:wmo:42361:1,2008-05-04T19:00:00Z,27.5500,-92.4900,1019.0,11111222 
ADCP,ioos:station:wmo:42361:1,2008-05-04T20:30:00Z,27.5500,-92.4900,1018.3,11111222 
ADCP,ioos:station:wmo:42361:1,2008-05-04T21:00:00Z,27.5500,-92.4900,1017.6,11111222 
ADCP,ioos:station:wmo:42361:1,2008-05-04T23:00:00Z,27.5500,-92.4900,1017.3,11111222 
ADCP,ioos:station:wmo:42361:1,2008-05-05T01:00:00Z,27.5500,-92.4900,1018.0,11111222 
ADCP,ioos:station:wmo:42361:1,2008-05-05T02:00:00Z,27.5500,-92.4900,1018.6,11111222 
ADCP,ioos:station:wmo:42361:1,2008-05-05T03:00:00Z,27.5500,-92.4900,1019.0,11111222 
ADCP,ioos:station:wmo:42361:1,2008-05-05T04:30:00Z,27.5500,-92.4900,1019.3,11111222 
ADCP,ioos:station:wmo:42361:1,2008-05-05T05:00:00Z,27.5500,-92.4900,1019.3,11111222 
ADCP,ioos:station:wmo:42361:1,2008-05-05T06:00:00Z,27.5500,-92.4900,1018.6,11111222 
ADCP,ioos:station:wmo:42361:1,2008-05-05T07:00:00Z,27.5500,-92.4900,1018.0,11111222 
ADCP,ioos:station:wmo:42361:1,2008-05-05T08:00:00Z,27.5500,-92.4900,1018.0,11111222 
ADCP,ioos:station:wmo:42361:1,2008-05-05T09:00:00Z,27.5500,-92.4900,1018.0,11111222 
ADCP,ioos:station:wmo:42361:1,2008-05-05T11:00:00Z,27.5500,-92.4900,1018.0,11111222 
ADCP,ioos:station:wmo:42361:1,2008-05-05T12:00:00Z,27.5500,-92.4900,1018.3,11111222 
ADCP,ioos:station:wmo:42361:1,2008-05-05T13:00:00Z,27.5500,-92.4900,1019.0,11111222 
ADCP,ioos:station:wmo:42361:1,2008-05-05T14:00:00Z,27.5500,-92.4900,1019.3,11111222 
ADCP,ioos:station:wmo:42361:1,2008-05-05T15:00:00Z,27.5500,-92.4900,1020.0,11111222 
ADCP,ioos:station:wmo:42361:1,2008-05-05T16:00:00Z,27.5500,-92.4900,1020.3,11111222 
ADCP,ioos:station:wmo:42361:1,2008-05-05T17:00:00Z,27.5500,-92.4900,1020.7,11111222 
ADCP,ioos:station:wmo:42361:1,2008-05-05T18:00:00Z,27.5500,-92.4900,1020.0,11111222 
ADCP,ioos:station:wmo:42361:1,2008-05-05T19:00:00Z,27.5500,-92.4900,1019.3,11111222 
ADCP,ioos:station:wmo:42361:1,2008-05-05T20:00:00Z,27.5500,-92.4900,1018.6,11111222 
ADCP,ioos:station:wmo:42361:1,2008-05-05T21:15:00Z,27.5500,-92.4900,1018.3,11111222 
ADCP,ioos:station:wmo:42361:1,2008-05-05T22:00:00Z,27.5500,-92.4900,1018.0,11111222 
ADCP,ioos:station:wmo:42361:1,2008-05-05T23:00:00Z,27.5500,-92.4900,1018.0,11111222 
ADCP,ioos:station:wmo:42361:1,2008-05-06T00:00:00Z,27.5500,-92.4900,1019.0,11111222 
ADCP,ioos:station:wmo:42361:1,2008-05-06T01:00:00Z,27.5500,-92.4900,1019.3,11111222 
ADCP,ioos:station:wmo:42361:1,2008-05-06T02:00:00Z,27.5500,-92.4900,1019.3,11111222 
ADCP,ioos:station:wmo:42361:1,2008-05-06T03:00:00Z,27.5500,-92.4900,1019.7,11111222 
ADCP,ioos:station:wmo:42361:1,2008-05-06T04:00:00Z,27.5500,-92.4900,1019.7,11111222 
ADCP,ioos:station:wmo:42361:1,2008-05-06T05:00:00Z,27.5500,-92.4900,1019.7,11111222 
ADCP,ioos:station:wmo:42361:1,2008-05-06T06:00:00Z,27.5500,-92.4900,1018.3,11111222 
ADCP,ioos:station:wmo:42361:1,2008-05-06T07:00:00Z,27.5500,-92.4900,1018.0,11111222 
ADCP,ioos:station:wmo:42361:1,2008-05-06T08:00:00Z,27.5500,-92.4900,1016.9,11111222 
ADCP,ioos:station:wmo:42361:1,2008-05-06T09:00:00Z,27.5500,-92.4900,1016.6,11111222 
ADCP,ioos:station:wmo:42361:1,2008-05-06T10:00:00Z,27.5500,-92.4900,1016.6,11111222 
ADCP,ioos:station:wmo:42361:1,2008-05-06T11:00:00Z,27.5500,-92.4900,1016.9,11111222 
ADCP,ioos:station:wmo:42361:1,2008-05-06T12:00:00Z,27.5500,-92.4900,1017.6,11111222 
ADCP,ioos:station:wmo:42361:1,2008-05-06T13:00:00Z,27.5500,-92.4900,1018.0,11111222 
ADCP,ioos:station:wmo:42361:1,2008-05-06T14:00:00Z,27.5500,-92.4900,1018.6,11111222 
ADCP,ioos:station:wmo:42361:1,2008-05-06T15:00:00Z,27.5500,-92.4900,1019.0,11111222 
ADCP,ioos:station:wmo:42361:1,2008-05-06T16:00:00Z,27.5500,-92.4900,1019.7,11111222 
ADCP,ioos:station:wmo:42361:1,2008-05-06T17:00:00Z,27.5500,-92.4900,1020.0,11111222 
ADCP,ioos:station:wmo:42361:1,2008-05-06T18:00:00Z,27.5500,-92.4900,1019.7,11111222 
ADCP,ioos:station:wmo:42361:1,2008-05-06T19:00:00Z,27.5500,-92.4900,1019.3,11111222 
ADCP,ioos:station:wmo:42361:1,2008-05-06T20:15:00Z,27.5500,-92.4900,1018.3,11111222 
ADCP,ioos:station:wmo:42361:1,2008-05-06T21:00:00Z,27.5500,-92.4900,1017.6,11111222 
ADCP,ioos:station:wmo:42361:1,2008-05-06T22:00:00Z,27.5500,-92.4900,1016.6,11111222 
ADCP,ioos:station:wmo:42361:1,2008-05-06T23:00:00Z,27.5500,-92.4900,1015.9,11111222 
ADCP,ioos:station:wmo:42361:1,2008-05-07T00:00:00Z,27.5500,-92.4900,1014.9,11111222 
ADCP,ioos:station:wmo:42361:1,2008-05-07T01:00:00Z,27.5500,-92.4900,1015.3,11111222 
ADCP,ioos:station:wmo:42361:1,2008-05-07T02:00:00Z,27.5500,-92.4900,1015.6,11111222 
ADCP,ioos:station:wmo:42361:1,2008-05-07T03:00:00Z,27.5500,-92.4900,1016.3,11111222 
ADCP,ioos:station:wmo:42361:1,2008-05-07T04:00:00Z,27.5500,-92.4900,1015.9,11111222 
ADCP,ioos:station:wmo:42361:1,2008-05-07T05:00:00Z,27.5500,-92.4900,1014.9,11111222 
ADCP,ioos:station:wmo:42361:1,2008-05-07T06:15:00Z,27.5500,-92.4900,1014.2,11111222 
ADCP,ioos:station:wmo:42361:1,2008-05-07T07:00:00Z,27.5500,-92.4900,1014.2,11111222 
ADCP,ioos:station:wmo:42361:1,2008-05-07T08:00:00Z,27.5500,-92.4900,1012.5,11111222 
ADCP,ioos:station:wmo:42361:1,2008-05-07T09:00:00Z,27.5500,-92.4900,1012.2,11111222 
ADCP,ioos:station:wmo:42361:1,2008-05-07T10:00:00Z,27.5500,-92.4900,1011.5,11111222 
ADCP,ioos:station:wmo:42361:1,2008-05-07T11:00:00Z,27.5500,-92.4900,1011.9,11111222 
ADCP,ioos:station:wmo:42361:1,2008-05-07T12:00:00Z,27.5500,-92.4900,1012.2,11111222 
ADCP,ioos:station:wmo:42361:1,2008-05-07T13:00:00Z,27.5500,-92.4900,1012.5,11111222 
ADCP,ioos:station:wmo:42361:1,2008-05-07T14:00:00Z,27.5500,-92.4900,1012.9,11111222 
ADCP,ioos:station:wmo:42361:1,2008-05-07T15:00:00Z,27.5500,-92.4900,1012.5,11111222 
ADCP,ioos:station:wmo:42361:1,2008-05-07T16:00:00Z,27.5500,-92.4900,1012.5,11111222 
ADCP,ioos:station:wmo:42361:1,2008-05-07T17:00:00Z,27.5500,-92.4900,1012.9,11111222 
ADCP,ioos:station:wmo:42361:1,2008-05-07T18:00:00Z,27.5500,-92.4900,1011.9,11111222 
ADCP,ioos:station:wmo:42361:1,2008-05-07T19:00:00Z,27.5500,-92.4900,1011.5,11111222 
ADCP,ioos:station:wmo:42361:1,2008-05-07T20:00:00Z,27.5500,-92.4900,1011.2,11111222 
ADCP,ioos:station:wmo:42361:1,2008-05-07T21:00:00Z,27.5500,-92.4900,1010.8,11111222 
ADCP,ioos:station:wmo:42361:1,2008-05-07T22:00:00Z,27.5500,-92.4900,1010.2,11111222 
ADCP,ioos:station:wmo:42361:1,2008-05-07T23:00:00Z,27.5500,-92.4900,1009.5,11111222 
ADCP,ioos:station:wmo:42361:1,2008-05-08T00:00:00Z,27.5500,-92.4900,1009.5,11111222 
ADCP,ioos:station:wmo:42361:1,2008-05-08T01:00:00Z,27.5500,-92.4900,1009.2,11111222 
ADCP,ioos:station:wmo:42361:1,2008-05-08T02:00:00Z,27.5500,-92.4900,1010.2,11111222 
ADCP,ioos:station:wmo:42361:1,2008-05-08T03:00:00Z,27.5500,-92.4900,1010.5,11111222 
ADCP,ioos:station:wmo:42361:1,2008-05-08T04:00:00Z,27.5500,-92.4900,1009.5,11111222 
ADCP,ioos:station:wmo:42361:1,2008-05-08T05:00:00Z,27.5500,-92.4900,1010.2,11111222 
ADCP,ioos:station:wmo:42361:1,2008-05-08T06:00:00Z,27.5500,-92.4900,1010.5,11111222 
ADCP,ioos:station:wmo:42361:1,2008-05-08T07:00:00Z,27.5500,-92.4900,1010.2,11111222 
ADCP,ioos:station:wmo:42361:1,2008-05-08T08:00:00Z,27.5500,-92.4900,1009.8,11111222 
ADCP,ioos:station:wmo:42361:1,2008-05-08T09:00:00Z,27.5500,-92.4900,1010.2,11111222 
ADCP,ioos:station:wmo:42361:1,2008-05-08T10:00:00Z,27.5500,-92.4900,1010.5,11111222 
ADCP,ioos:station:wmo:42361:1,2008-05-08T11:00:00Z,27.5500,-92.4900,1010.8,11111222 
ADCP,ioos:station:wmo:42361:1,2008-05-08T12:00:00Z,27.5500,-92.4900,1010.8,11111222 
ADCP,ioos:station:wmo:42361:1,2008-05-08T13:00:00Z,27.5500,-92.4900,1010.8,11111222 
ADCP,ioos:station:wmo:42361:1,2008-05-08T14:00:00Z,27.5500,-92.4900,1011.2,11111222 
ADCP,ioos:station:wmo:42361:1,2008-05-08T15:00:00Z,27.5500,-92.4900,1011.2,11111222 
ADCP,ioos:station:wmo:42361:1,2008-05-08T16:00:00Z,27.5500,-92.4900,1011.2,11111222 
ADCP,ioos:station:wmo:42361:1,2008-05-08T17:00:00Z,27.5500,-92.4900,1011.2,11111222 
ADCP,ioos:station:wmo:42361:1,2008-05-08T18:00:00Z,27.5500,-92.4900,1011.2,11111222 
ADCP,ioos:station:wmo:42361:1,2008-05-08T19:00:00Z,27.5500,-92.4900,1010.8,11111222 
ADCP,ioos:station:wmo:42361:1,2008-05-08T20:00:00Z,27.5500,-92.4900,1010.5,11111222 
ADCP,ioos:station:wmo:42361:1,2008-05-08T21:00:00Z,27.5500,-92.4900,1010.2,11111222 
ADCP,ioos:station:wmo:42361:1,2008-05-08T22:00:00Z,27.5500,-92.4900,1009.8,11111222 
ADCP,ioos:station:wmo:42361:1,2008-05-08T23:00:00Z,27.5500,-92.4900,1009.5,11111222 
ADCP,ioos:station:wmo:42361:1,2008-05-09T00:00:00Z,27.5500,-92.4900,1009.8,11111222 
ADCP,ioos:station:wmo:42361:1,2008-05-09T01:00:00Z,27.5500,-92.4900,1009.8,11111222 
ADCP,ioos:station:wmo:42361:1,2008-05-09T02:00:00Z,27.5500,-92.4900,1010.5,11111222 
ADCP,ioos:station:wmo:42361:1,2008-05-09T03:00:00Z,27.5500,-92.4900,1010.8,11111222 
ADCP,ioos:station:wmo:42361:1,2008-05-09T04:00:00Z,27.5500,-92.4900,1010.8,11111222 
ADCP,ioos:station:wmo:42361:1,2008-05-09T05:00:00Z,27.5500,-92.4900,1011.2,11111222 
ADCP,ioos:station:wmo:42361:1,2008-05-09T06:00:00Z,27.5500,-92.4900,1010.5,11111222 
ADCP,ioos:station:wmo:42361:1,2008-05-09T07:00:00Z,27.5500,-92.4900,1010.2,11111222 
ADCP,ioos:station:wmo:42361:1,2008-05-09T08:00:00Z,27.5500,-92.4900,1010.2,11111222 
ADCP,ioos:station:wmo:42361:1,2008-05-09T09:00:00Z,27.5500,-92.4900,1010.2,11111222 
ADCP,ioos:station:wmo:42361:1,2008-05-09T10:00:00Z,27.5500,-92.4900,1010.2,11111222 
ADCP,ioos:station:wmo:42361:1,2008-05-09T11:00:00Z,27.5500,-92.4900,1010.8,11111222 
ADCP,ioos:station:wmo:42361:1,2008-05-09T12:00:00Z,27.5500,-92.4900,1011.5,11111222 
ADCP,ioos:station:wmo:42361:1,2008-05-09T13:00:00Z,27.5500,-92.4900,1012.5,11111222 
ADCP,ioos:station:wmo:42361:1,2008-05-09T14:00:00Z,27.5500,-92.4900,1012.5,11111222 
ADCP,ioos:station:wmo:42361:1,2008-05-09T15:00:00Z,27.5500,-92.4900,1012.9,11111222 
ADCP,ioos:station:wmo:42361:1,2008-05-09T16:00:00Z,27.5500,-92.4900,1012.9,11111222 
ADCP,ioos:station:wmo:42361:1,2008-05-09T17:00:00Z,27.5500,-92.4900,1012.5,11111222 
ADCP,ioos:station:wmo:42361:1,2008-05-09T18:00:00Z,27.5500,-92.4900,1011.9,11111222 
ADCP,ioos:station:wmo:42361:1,2008-05-09T19:00:00Z,27.5500,-92.4900,1011.5,11111222 
ADCP,ioos:station:wmo:42361:1,2008-05-09T20:00:00Z,27.5500,-92.4900,1011.2,11111222 
ADCP,ioos:station:wmo:42361:1,2008-05-09T21:00:00Z,27.5500,-92.4900,1010.8,11111222 
ADCP,ioos:station:wmo:42361:1,2008-05-09T22:00:00Z,27.5500,-92.4900,1010.8,11111222 
ADCP,ioos:station:wmo:42361:1,2008-05-09T23:00:00Z,27.5500,-92.4900,1010.5,11111222 
ADCP,ioos:station:wmo:42361:1,2008-05-10T00:00:00Z,27.5500,-92.4900,1010.8,11111222 
ADCP,ioos:station:wmo:42361:1,2008-05-10T01:00:00Z,27.5500,-92.4900,1010.8,11111222 
ADCP,ioos:station:wmo:42361:1,2008-05-10T02:00:00Z,27.5500,-92.4900,1011.5,11111222 
ADCP,ioos:station:wmo:42361:1,2008-05-10T03:00:00Z,27.5500,-92.4900,1011.9,11111222 
ADCP,ioos:station:wmo:42361:1,2008-05-10T04:00:00Z,27.5500,-92.4900,1012.2,11111222 
ADCP,ioos:station:wmo:42361:1,2008-05-10T05:00:00Z,27.5500,-92.4900,1012.2,11111222 
ADCP,ioos:station:wmo:42361:1,2008-05-10T06:00:00Z,27.5500,-92.4900,1011.9,11111222 
ADCP,ioos:station:wmo:42361:1,2008-05-10T07:00:00Z,27.5500,-92.4900,1011.2,11111222 
ADCP,ioos:station:wmo:42361:1,2008-05-10T08:00:00Z,27.5500,-92.4900,1010.5,11111222 
ADCP,ioos:station:wmo:42361:1,2008-05-10T09:00:00Z,27.5500,-92.4900,1011.2,11111222 
ADCP,ioos:station:wmo:42361:1,2008-05-10T10:00:00Z,27.5500,-92.4900,1011.2,11111222 
ADCP,ioos:station:wmo:42361:1,2008-05-10T11:00:00Z,27.5500,-92.4900,1010.8,11111222 
ADCP,ioos:station:wmo:42361:1,2008-05-10T12:00:00Z,27.5500,-92.4900,1011.5,11111222 
ADCP,ioos:station:wmo:42361:1,2008-05-10T13:00:00Z,27.5500,-92.4900,1011.9,11111222 
ADCP,ioos:station:wmo:42361:1,2008-05-10T14:00:00Z,27.5500,-92.4900,1012.2,11111222 
ADCP,ioos:station:wmo:42361:1,2008-05-10T15:00:00Z,27.5500,-92.4900,1012.2,11111222 
ADCP,ioos:station:wmo:42361:1,2008-05-10T16:00:00Z,27.5500,-92.4900,1011.9,11111222 
ADCP,ioos:station:wmo:42361:1,2008-05-10T17:00:00Z,27.5500,-92.4900,1011.9,11111222 
ADCP,ioos:station:wmo:42361:1,2008-05-10T18:00:00Z,27.5500,-92.4900,1011.2,11111222 
ADCP,ioos:station:wmo:42361:1,2008-05-10T19:00:00Z,27.5500,-92.4900,1010.8,11111222 
ADCP,ioos:station:wmo:42361:1,2008-05-10T20:00:00Z,27.5500,-92.4900,1010.2,11111222 
ADCP,ioos:station:wmo:42361:1,2008-05-10T21:00:00Z,27.5500,-92.4900,1009.8,11111222 
ADCP,ioos:station:wmo:42361:1,2008-05-10T22:00:00Z,27.5500,-92.4900,1009.5,11111222 
ADCP,ioos:station:wmo:42361:1,2008-05-10T23:00:00Z,27.5500,-92.4900,1009.8,11111222 
ADCP,ioos:station:wmo:42361:1,2008-05-11T00:00:00Z,27.5500,-92.4900,1009.8,11111222 
ADCP,ioos:station:wmo:42361:1,2008-05-11T01:00:00Z,27.5500,-92.4900,1009.8,11111222 
ADCP,ioos:station:wmo:42361:1,2008-05-11T02:00:00Z,27.5500,-92.4900,1010.5,11111222 
ADCP,ioos:station:wmo:42361:1,2008-05-11T03:00:00Z,27.5500,-92.4900,1010.2,11111222 
ADCP,ioos:station:wmo:42361:1,2008-05-11T04:00:00Z,27.5500,-92.4900,1010.5,11111222 
ADCP,ioos:station:wmo:42361:1,2008-05-11T05:00:00Z,27.5500,-92.4900,1010.5,11111222 
ADCP,ioos:station:wmo:42361:1,2008-05-11T06:00:00Z,27.5500,-92.4900,1009.8,11111222 
ADCP,ioos:station:wmo:42361:1,2008-05-11T07:00:00Z,27.5500,-92.4900,1009.5,11111222 
ADCP,ioos:station:wmo:42361:1,2008-05-11T08:00:00Z,27.5500,-92.4900,1009.8,11111222 
ADCP,ioos:station:wmo:42361:1,2008-05-11T09:00:00Z,27.5500,-92.4900,1010.2,11111222 
ADCP,ioos:station:wmo:42361:1,2008-05-11T10:00:00Z,27.5500,-92.4900,1010.8,11111222 
ADCP,ioos:station:wmo:42361:1,2008-05-11T11:00:00Z,27.5500,-92.4900,1011.5,11111222 
ADCP,ioos:station:wmo:42361:1,2008-05-11T12:00:00Z,27.5500,-92.4900,1012.9,11111222 
ADCP,ioos:station:wmo:42361:1,2008-05-11T13:00:00Z,27.5500,-92.4900,1013.9,11111222 
ADCP,ioos:station:wmo:42361:1,2008-05-11T14:00:00Z,27.5500,-92.4900,1014.2,11111222 
ADCP,ioos:station:wmo:42361:1,2008-05-11T15:00:00Z,27.5500,-92.4900,1014.6,11111222 
ADCP,ioos:station:wmo:42361:1,2008-05-11T16:00:00Z,27.5500,-92.4900,1013.9,11111222 
ADCP,ioos:station:wmo:42361:1,2008-05-11T17:00:00Z,27.5500,-92.4900,1013.6,11111222 
ADCP,ioos:station:wmo:42361:1,2008-05-11T18:00:00Z,27.5500,-92.4900,1013.6,11111222 
ADCP,ioos:station:wmo:42361:1,2008-05-11T19:00:00Z,27.5500,-92.4900,1013.9,11111222 
ADCP,ioos:station:wmo:42361:1,2008-05-11T20:00:00Z,27.5500,-92.4900,1013.2,11111222 
ADCP,ioos:station:wmo:42361:1,2008-05-11T21:00:00Z,27.5500,-92.4900,1012.9,11111222 
ADCP,ioos:station:wmo:42361:1,2008-05-11T22:00:00Z,27.5500,-92.4900,1013.2,11111222 
ADCP,ioos:station:wmo:42361:1,2008-05-11T23:00:00Z,27.5500,-92.4900,1012.9,11111222 
ADCP,ioos:station:wmo:42361:1,2008-05-12T00:00:00Z,27.5500,-92.4900,1013.2,11111222 
ADCP,ioos:station:wmo:42361:1,2008-05-12T01:00:00Z,27.5500,-92.4900,1013.9,11111222 
ADCP,ioos:station:wmo:42361:1,2008-05-12T02:00:00Z,27.5500,-92.4900,1014.2,11111222 
ADCP,ioos:station:wmo:42361:1,2008-05-12T03:00:00Z,27.5500,-92.4900,1014.6,11111222 
ADCP,ioos:station:wmo:42361:1,2008-05-12T04:00:00Z,27.5500,-92.4900,1014.9,11111222 
ADCP,ioos:station:wmo:42361:1,2008-05-12T05:00:00Z,27.5500,-92.4900,1014.9,11111222 
ADCP,ioos:station:wmo:42361:1,2008-05-12T06:00:00Z,27.5500,-92.4900,1014.6,11111222 
ADCP,ioos:station:wmo:42361:1,2008-05-12T07:00:00Z,27.5500,-92.4900,1013.9,11111222 
ADCP,ioos:station:wmo:42361:1,2008-05-12T08:00:00Z,27.5500,-92.4900,1013.6,11111222 
ADCP,ioos:station:wmo:42361:1,2008-05-12T09:00:00Z,27.5500,-92.4900,1013.6,11111222 
ADCP,ioos:station:wmo:42361:1,2008-05-12T10:00:00Z,27.5500,-92.4900,1013.9,11111222 
ADCP,ioos:station:wmo:42361:1,2008-05-12T11:00:00Z,27.5500,-92.4900,1014.9,11111222 
ADCP,ioos:station:wmo:42361:1,2008-05-12T12:00:00Z,27.5500,-92.4900,1015.9,11111222 
ADCP,ioos:station:wmo:42361:1,2008-05-12T13:00:00Z,27.5500,-92.4900,1015.9,11111222 
ADCP,ioos:station:wmo:42361:1,2008-05-12T14:00:00Z,27.5500,-92.4900,1015.9,11111222 
ADCP,ioos:station:wmo:42361:1,2008-05-12T15:00:00Z,27.5500,-92.4900,1015.9,11111222 
ADCP,ioos:station:wmo:42361:1,2008-05-12T16:00:00Z,27.5500,-92.4900,1015.6,11111222 
ADCP,ioos:station:wmo:42361:1,2008-05-12T17:00:00Z,27.5500,-92.4900,1015.9,11111222 
ADCP,ioos:station:wmo:42361:1,2008-05-12T18:00:00Z,27.5500,-92.4900,1015.3,11111222 
ADCP,ioos:station:wmo:42361:1,2008-05-12T19:00:00Z,27.5500,-92.4900,1014.9,11111222 